Regional Weather Roundup
Issued by NWS

Home | Current Version | Previous Version | Graphics & Text | Print | Product List | Glossary On
Versions: 1 2 3 4 5 6 7 8 9 10 11 12 13 14 15 16 17 18 19 20 21 22 23 24 25 26 27 28 29 30 31 32 33 34 35 36 37 38 39 40 41 42 43 44 45 46 47 48 49 50
000
ASUS43 KIND 260059
RWRIN

WEATHER ROUNDUP FOR INDIANA
NATIONAL WEATHER SERVICE INDIANAPOLIS IN
900 PM EDT MON MAY 25 2015

NOTE: "FAIR" INDICATES FEW OR NO CLOUDS BELOW 12,000 FEET WITH NO
SIGNIFICANT WEATHER AND/OR OBSTRUCTIONS TO VISIBILITY.

* - STATION DOES NOT REPORT WEATHER SUCH AS PRECIPITATION OR FOG.

+ - STATION NOT QUALITY CONTROLLED BY THE NATIONAL WEATHER SERVICE.
    USE DATA WITH CAUTION...ESPECIALLY DEWPOINT AND RELATIVE
    HUMIDITY OBSERVATIONS.

INZ001>003-010>013-019-020-260200-
NORTHWEST INDIANA

CITY           SKY/WX    TMP DP  RH WIND       PRES   REMARKS
GARY /AIRPORT/ MOCLDY    81  57  44 SW12      29.93S
RENSSELAER +   MOCLDY    77  63  61 S14       29.97R

$$

LMZ046-743>745-260200-
SOUTHERN LAKE MICHIGAN

STATION/POSITION TIME  TEMP    WIND        PRES    WAVE
                       AIR SEA DIR/SP/G            HT
                 (UTC) (F)     (DEG/KT/KT) (MB)    (FT)
BURNS HARBOR     0000   79     210/ 13/ 16 1013.9S
MICHIGAN CITY    0000   78     190/ 13/ 15   N/A
5NW MICH CITY    0000   64 52  240/  8/ 10   N/A     1

$$

INZ004-005-014>016-021>024-260200-
NORTH CENTRAL INDIANA

CITY           SKY/WX    TMP DP  RH WIND       PRES   REMARKS
GOSHEN         MOCLDY    75  62  64 SW14      29.97R
SOUTH BEND     MOCLDY    76  57  51 SW6       29.96R

$$

INZ006>009-017-018-025>027-260200-
NORTHEAST INDIANA

CITY           SKY/WX    TMP DP  RH WIND       PRES   REMARKS
ANGOLA *+      CLEAR     75  63  64 SW10      29.98S
FORT WAYNE     MOCLDY    74  61  63 SW13      30.01S

$$

INZ028-029-035-036-043>045-051>053-260200-
WEST CENTRAL INDIANA

CITY           SKY/WX    TMP DP  RH WIND       PRES   REMARKS
CRAWFORDSVL +  MOCLDY    72  59  64 S9        30.02S
GREENCASTLE +  PTCLDY    70  61  73 S6        30.04R
LAFAYETTE      MOCLDY    74  63  68 S8        29.99S
TERRE HAUTE    CLOUDY    73  66  78 S12       30.01R

$$

INZ030>032-037>040-046>048-054>057-064-065-260200-
CENTRAL INDIANA

CITY           SKY/WX    TMP DP  RH WIND       PRES   REMARKS
COLUMBUS       CLEAR     70  63  78 S9        30.06S
GREENWOOD *+   CLOUDY    72  61  68 S10       30.06R
INDIANAPOLIS   CLOUDY    72  63  73 S13       30.03R
-EAGLE CREEK   CLOUDY    73  64  73 S8        30.03R
KOKOMO *+      MOCLDY    73  63  68 S13       30.01S
MT COMFORT *+  CLOUDY    72  57  60 S10       30.05R
SHELBYVILLE    CLOUDY    73  63  70 S10       30.04F

$$

INZ033-034-041-042-049-050-058-059-260200-
EAST CENTRAL INDIANA

CITY           SKY/WX    TMP DP  RH WIND       PRES   REMARKS
MUNCIE         MOCLDY    75  63  66 SW10G23   30.04S

$$

INZ060-061-067>069-081>083-085>088-260200-
SOUTHWEST INDIANA

CITY           SKY/WX    TMP DP  RH WIND       PRES   REMARKS
EVANSVILLE     CLOUDY    72  66  81 S6        30.05R
HUNTINGBURG *+ MOCLDY    70  63  78 SE8       30.05F

$$

INZ062-063-066-070>080-084-089>092-260200-
SOUTH CENTRAL AND SOUTHEAST INDIANA

CITY           SKY/WX    TMP DP  RH WIND       PRES   REMARKS
BLOOMINGTON    MOCLDY    70  64  81 S5        30.05S
MADISON *+     CLOUDY    70  63  78 S3        30.10S
SEYMOUR +      CLOUDY    73  64  73 S8        30.06F

$$




USA.gov is the U.S. government's official web portal to all federal, state and local government web resources and services.